Regional Weather Roundup
Issued by NWS

Home | Current Version | Previous Version | Graphics & Text | Print | Product List | Glossary Off
Versions: 1 2 3 4 5 6 7 8 9 10 11 12 13 14 15 16 17 18 19 20 21 22 23 24 25 26 27 28 29 30 31 32 33 34 35 36 37 38 39 40 41 42 43 44 45 46 47 48 49 50

000
ASUS43 KTOP 231759
RWRKS

WEATHER ROUNDUP FOR KANSAS
NATIONAL WEATHER SERVICE GOODLAND KS
100 PM CDT WED JUL 23 2014

NOTE:  "FAIR" INDICATES FEW OR NO CLOUDS BELOW 12,000 FEET WITH NO
SIGNIFICANT WEATHER AND/OR OBSTRUCTIONS TO VISIBILITY.

KSZ001>006-013>018-027>032-041>047-231900-
NORTHWEST KANSAS

CITY           SKY/WX    TMP DP  RH WIND       PRES   REMARKS
GOODLAND       MOSUNNY   79  61  53 E26G36    30.35F
6HR MIN TEMP:  67; 6HR MAX TEMP:  80;

HAYS           CLOUDY    82  63  51 N22       30.29S
HILL CITY      CLOUDY    74  62  66 NE7       30.31F
6HR MIN TEMP:  72; 6HR MAX TEMP:  76;

RUSSELL        PTSUNNY   85  65  51 N24G33    30.26R
6HR MIN TEMP:  72; 6HR MAX TEMP:  87; 6HR PCP: TRACE;

$$

KSZ061>065-074>080-084>089-231900-
SOUTHWEST KANSAS

CITY           SKY/WX    TMP DP  RH WIND       PRES   REMARKS
DODGE CITY     SUNNY     91  63  39 CALM      30.23F
6HR MIN TEMP:  65; 6HR MAX TEMP:  91;

ELKHART          N/A     91  65  42 SE9         N/A
GARDEN CITY    SUNNY     89  66  46 E5        30.26S
6HR MIN TEMP:  70; 6HR MAX TEMP:  89;

GREAT BEND     MOSUNNY   84  70  61 NE8       30.22R
LIBERAL        SUNNY     93  63  36 SE5       30.25S
$$

KSZ066>073-081>083-090>101-231900-
SOUTHEAST KANSAS

CITY           SKY/WX    TMP DP  RH WIND       PRES   REMARKS
CHANUTE        RAIN      71  66  84 NE9       30.15F
6HR MIN TEMP:  69; 6HR MAX TEMP:  87; 6HR PCP:  0.63;

COFFEYVILLE    TSTM      73  70  90 N9        30.13F
6HR MIN TEMP:  70; 6HR MAX TEMP:  88; 6HR PCP:  0.64;

HUTCHINSON     MOSUNNY   86  67  52 N9        30.19R
6HR MIN TEMP:  75; 6HR MAX TEMP:  86;

MEDICINE LODGE   N/A     86  75  69 NE9       30.17S HX  95
NEWTON         CLOUDY    75  63  64 N14       30.22R
PARSONS        CLOUDY    71  67  87 N8        30.16F
6HR MIN TEMP:  71; 6HR MAX TEMP:  88;

WICHITA INTL   CLOUDY    80  68  66 S3        30.14S
6HR MIN TEMP:  75; 6HR MAX TEMP:  83;

WICHITA JABRA  CLOUDY    77  68  73 VRB5      30.16R
6HR MIN TEMP:  75; 6HR MAX TEMP:  81;

WINFIELD       CLOUDY    78  70  76 NE7       30.16R
6HR MIN TEMP:  74; 6HR MAX TEMP:  89;

$$

KSZ007>012-019>026-033>040-048>060-102>105-231900-
NORTHEAST KANSAS

CITY           SKY/WX    TMP DP  RH WIND       PRES   REMARKS
CONCORDIA      CLOUDY    82  64  54 N10       30.23R
6HR MIN TEMP:  66; 6HR MAX TEMP:  83; 6HR PCP:  0.06;

EMPORIA        CLOUDY    76  69  79 NE15      30.14F
6HR MIN TEMP:  69; 6HR MAX TEMP:  78; 6HR PCP:  0.31;

LAWRENCE       SUNNY     87  68  52 NE9       30.16F
6HR MIN TEMP:  75; 6HR MAX TEMP:  87;

MANHATTAN      PTSUNNY   88  65  46 NE13      30.16S
6HR MIN TEMP:  74; 6HR MAX TEMP:  88; 6HR PCP: TRACE;

OLATHE IND     SUNNY     86  65  49 N16       30.17F
6HR MIN TEMP:  76; 6HR MAX TEMP:  87;

OLATHE EXE     SUNNY     87  67  51 N17G24    30.16S
6HR MIN TEMP:  75; 6HR MAX TEMP:  87;

SALINA         MOSUNNY   83  66  56 N12       30.20S
6HR MIN TEMP:  72; 6HR MAX TEMP:  83; 6HR PCP: TRACE;

TOPEKA BILLARD MOSUNNY   88  65  46 NE14      30.16F
6HR MIN TEMP:  74; 6HR MAX TEMP:  88;

TOPEKA FORBES  MOSUNNY   86  65  49 NE12G21   30.15F
6HR MIN TEMP:  74; 6HR MAX TEMP:  87;

$$


USA.gov is the U.S. government's official web portal to all federal, state and local government web resources and services.